CDT,Max TemperatureF,Mean TemperatureF,Min TemperatureF,Max Dew PointF,MeanDew PointF,Min DewpointF,Max Humidity, Mean Humidity, Min Humidity, Max Sea Level PressureIn, Mean Sea Level PressureIn, Min Sea Level PressureIn, Max VisibilityMiles, Mean VisibilityMiles, Min VisibilityMiles, Max Wind SpeedMPH, Mean Wind SpeedMPH, Max Gust SpeedMPH,PrecipitationIn, CloudCover, Events, WindDirDegrees
2012-10-1,62,58,55,57,55,54,100,89,77,29.75,29.63,29.55,10,7,1,30,13,44,1.37,7,Rain-Thunderstorm,20
2012-10-2,71,60,50,54,50,45,100,74,38,29.99,29.87,29.74,10,9,5,13,5,16,0.00,1,,313
2012-10-3,75,62,48,57,53,48,100,78,41,30.16,30.08,30.00,10,8,4,9,2,,0.00,1,,210
2012-10-4,80,70,59,64,59,55,100,80,44,30.28,30.22,30.16,10,7,4,7,1,,0.00,0,,197
2012-10-5,80,70,59,64,60,57,94,76,47,30.20,30.11,29.99,10,7,3,10,2,,0.00,2,,228
2012-10-6,57,50,44,54,45,41,100,87,67,30.21,30.15,30.08,10,8,2,13,8,21,0.64,8,Rain-Thunderstorm,13
2012-10-7,57,50,42,45,40,37,93,74,48,30.28,30.21,30.17,10,8,3,9,5,,0.17,4,Rain,12
2012-10-8,57,49,41,46,43,39,100,81,51,30.26,30.21,30.16,10,8,2,7,1,,0.40,6,Rain,21
2012-10-9,64,50,37,50,43,36,100,78,49,30.18,30.11,30.02,10,9,5,10,1,,0.00,1,,217
2012-10-10,66,56,46,55,50,43,94,78,43,30.25,30.18,30.07,10,9,7,9,2,,0.00,5,,359
2012-10-11,68,57,46,61,49,39,94,75,63,30.29,30.24,30.20,10,9,4,6,1,,0.00,5,Rain,97
2012-10-12,78,68,59,68,62,57,100,86,61,30.30,30.23,30.21,8,5,2,10,2,,0.00,1,,226
2012-10-13,80,71,62,64,62,59,100,77,48,30.25,30.15,30.05,10,6,2,14,4,23,0.00,1,,174
2012-10-14,75,67,59,66,63,59,100,86,65,30.10,30.01,29.95,9,6,0,18,7,30,0.24,2,Fog-Rain-Thunderstorm,209
2012-10-15,73,62,50,57,50,45,100,76,36,30.09,30.03,29.99,10,8,3,6,1,,0.00,0,Thunderstorm,357
2012-10-16,69,58,48,55,51,46,100,77,49,30.03,29.95,29.86,10,9,7,10,1,,0.00,0,,197
2012-10-17,77,65,53,63,55,48,94,71,50,29.87,29.75,29.56,10,9,0,22,5,31,1.21,3,Rain-Thunderstorm,188
2012-10-18,69,58,48,61,45,34,100,66,28,29.88,29.82,29.73,10,8,0,17,6,24,0.00,0,Fog,261
2012-10-19,66,56,46,46,38,34,87,53,32,29.91,29.82,29.79,10,8,4,18,7,24,0.00,1,,265
2012-10-20,71,55,39,48,42,37,100,70,31,30.03,29.96,29.91,10,9,7,7,1,,0.00,0,Thunderstorm,237
2012-10-21,77,64,51,52,47,43,76,58,32,30.11,30.06,29.99,10,9,5,12,2,17,0.00,0,,188
2012-10-22,80,68,57,55,51,45,88,63,28,30.19,30.12,30.08,10,10,8,12,3,,0.00,0,,187
2012-10-23,77,65,53,57,52,48,94,67,36,30.14,30.08,30.04,10,10,8,12,3,18,0.00,0,,194
2012-10-24,78,68,57,63,57,54,94,76,47,30.15,30.08,30.03,10,9,7,9,2,16,0.00,1,,202
2012-10-25,77,68,59,63,58,55,88,75,50,30.06,30.01,29.98,10,9,7,14,2,24,0.00,1,,191
2012-10-26,62,52,41,59,47,39,100,91,82,30.18,30.10,29.99,10,7,2,12,5,18,0.12,7,Rain,7
2012-10-27,55,48,41,39,37,34,87,70,51,30.17,30.12,30.07,10,9,7,12,7,16,0.00,4,,1
2012-10-28,57,46,35,36,33,28,87,64,36,30.19,30.13,30.09,10,9,7,13,6,21,0.00,0,,353
2012-10-29,55,44,32,32,29,23,100,64,29,30.26,30.18,30.09,10,9,8,15,4,22,0.00,0,,346
2012-10-30,59,44,28,37,29,21,100,65,25,30.09,30.01,29.94,10,10,8,13,3,17,0.00,0,,316
2012-10-31,64,48,33,41,35,32,93,71,30,30.02,29.99,29.96,10,9,6,9,1,,0.00,1,,321